RH
7 8 8 6 4 3 3 3 3 2 2 2 2 4 5 5 5 6 8 5 8 10 11 12 15 21 34 32 45 60 25 22 12 8 8 8 9 12 13 14 18 18 18 18 19 18 19 18 16
8 8 8 8 8 8 6 4 3 3 3 3 2 2 2 3 4 5 5 5 6 7 8 10 11 14 22 28 31 43 54 24 19 10 8 9 9 12 11 11 18 19 19 19 19 18 18 18 12
9 8 8 8 8 8 8 8 8 6 3 3 3 3 2 2 2 3 3 3 3 4 4 9 7 8 11 20 27 30 43 54 23 16 9 9 9 11 10 9 16 20 20 20 19 19 18 18 11
13 13 14 15 15 15 14 13 12 10 8 7 4 3 3 3 3 3 3 3 2 3 3 5 4 5 5 9 18 29 32 45 54 23 16 9 9 10 10 10 8 18 20 20 20 21 20 18 14
3 3 3 3 3 3 4 6 13 17 15 11 9 7 4 3 3 3 3 3 3 3 3 3 3 5 8 8 10 15 31 32 43 59 23 16 10 9 9 10 10 9 15 18 18 20 21 20 18
2 3 3 3 3 4 4 4 4 4 4 11 17 14 10 8 5 3 3 3 3 3 3 3 3 3 7 20 29 24 19 30 31 37 61 24 17 11 9 9 10 8 8 12 14 18 21 22 21
3 3 4 4 4 4 4 5 5 4 4 4 4 5 19 18 11 9 5 4 4 4 3 3 3 4 4 7 12 26 28 28 34 32 38 66 39 18 12 9 8 10 9 8 11 15 19 23 22
4 4 4 4 4 4 4 4 4 5 6 6 5 5 5 5 21 16 12 9 6 4 4 4 4 4 4 4 9 15 20 24 32 42 39 42 61 48 17 13 9 7 9 9 8 11 16 21 23
7 7 7 6 5 5 5 4 4 4 4 6 6 6 5 5 5 6 21 15 13 9 6 5 5 4 4 5 5 7 11 17 23 33 45 45 45 55 60 20 15 10 7 8 8 9 12 18 23
10 11 11 10 9 8 8 7 6 5 5 5 6 7 7 6 6 7 5 19 20 16 13 8 6 5 5 7 8 5 6 12 21 29 41 41 48 46 44 54 30 18 12 7 7 8 9 13 20
11 11 12 13 13 12 11 9 9 10 11 12 11 10 9 8 7 9 8 5 16 24 16 15 11 7 6 6 6 18 21 15 13 26 38 49 46 47 45 45 56 50 23 15 8 7 8 10 15
12 11 14 15 15 15 15 15 15 15 14 14 14 12 10 9 9 9 9 7 5 12 28 19 17 14 10 9 9 9 19 28 30 29 41 48 58 48 49 48 46 49 65 35 20 8 8 8 11
18 14 16 17 19 20 20 19 18 15 16 14 14 13 12 11 10 10 9 8 6 5 11 31 22 19 16 13 12 11 11 18 27 38 41 51 58 51 48 50 49 48 49 66 54 27 10 8 9
20 20 19 20 22 24 22 22 22 19 16 14 15 16 15 14 12 11 9 6 6 6 6 17 31 21 19 15 13 12 12 12 12 34 42 51 51 49 48 59 54 41 38 47 57 61 36 12 8
23 22 23 24 25 26 25 19 19 19 17 17 17 14 11 10 9 8 7 6 8 8 7 10 29 31 23 20 17 15 13 14 12 18 24 35 47 47 40 39 56 60 47 30 37 47 61 41 16
27 27 28 26 26 26 24 17 23 23 20 14 9 8 7 6 6 6 9 11 13 11 12 29 37 39 31 25 22 19 18 18 17 16 27 20 33 39 42 30 36 43 50 50 45 34 36 56 47
34 34 33 29 27 27 29 25 24 18 11 9 7 6 6 7 11 11 11 14 16 17 22 40 45 45 42 35 28 24 21 21 20 19 21 23 24 22 29 29 37 40 23 24 33 48 45 34 53
40 37 34 32 30 31 25 20 15 10 9 7 5 4 7 12 22 12 20 17 18 22 34 45 48 50 49 45 38 31 26 24 24 23 21 21 19 19 16 13 22 41 55 34 7 20 38 52 36
37 35 33 28 22 17 14 12 12 10 6 5 4 8 15 20 19 16 19 20 20 23 37 47 51 57 56 54 48 42 38 34 31 28 26 23 20 20 20 14 11 11 27 19 34 32 28 26 45
25 21 22 20 14 9 8 8 8 5 4 8 7 14 13 18 18 16 16 26 26 39 66 56 56 62 63 60 58 54 48 41 36 32 30 28 25 22 19 22 21 15 14 15 14 14 31 36 24
25 16 13 10 11 8 6 5 4 7 17 8 16 19 19 19 27 33 36 48 87 86 68 64 71 66 63 62 62 62 58 51 45 41 37 34 30 27 24 23 23 22 14 12 10 9 10 14 18
17 12 8 5 4 4 6 20 36 34 55 29 29 28 31 41 46 47 59 83 100 99 78 75 78 74 68 68 68 69 64 59 54 48 43 39 35 32 29 25 20 14 9 8 8 10 9 11 12
5 4 4 4 4 14 9 39 32 48 100 52 53 41 53 78 75 67 62 86 100 100 100 100 94 96 84 71 72 75 78 68 61 55 49 45 40 36 31 24 16 11 9 8 8 8 10 10 11
6 6 6 6 16 53 49 68 58 95 96 94 77 74 68 66 100 100 92 74 100 100 100 100 99 94 94 83 76 76 77 78 72 62 56 50 43 35 28 22 17 16 15 14 15 17 17 15 16
20 73 93 100 100 36 73 100 100 100 100 95 83 71 82 73 100 100 100 100 100 100 100 100 100 99 96 97 95 84 81 83 81 73 64 54 45 37 28 24 21 22 21 19 19 18 17 16 16
6 16 58 95 100 100 100 100 100 99 100 100 98 72 88 97 78 100 100 100 100 100 100 100 100 100 100 100 100 100 98 87 83 78 68 58 49 41 38 34 33 28 26 25 22 20 19 17 16
11 20 61 100 95 100 53 100 100 100 100 98 100 100 95 94 91 75 100 100 100 100 100 100 100 97 100 100 100 100 100 95 89 81 71 61 57 55 50 43 38 34 31 28 24 21 19 17 16
67 100 59 96 100 100 94 100 100 79 60 73 100 99 100 100 90 68 70 96 99 100 100 100 89 95 100 100 100 100 100 98 94 88 78 70 62 58 53 47 42 38 34 30 26 24 23 21 18
89 97 98 81 96 100 98 100 100 96 96 100 100 100 100 100 100 95 71 65 82 95 100 100 100 99 100 100 100 100 100 100 98 90 77 70 65 62 58 52 47 42 39 33 30 28 24 21 18
100 100 100 99 100 100 98 100 100 100 100 100 100 97 100 100 100 100 100 96 69 61 76 97 100 100 100 88 98 100 100 100 100 90 72 67 66 65 62 58 53 49 43 37 32 25 20 16 15
Wind_Speed
17 18 18 18 19 19 19 19 19 18 20 20 23 27 29 31 36 37 31 25 25 26 26 28 30 30 28 24 23 21 19 20 18 19 22 25 25 24 22 22 19 17 15 13 12 10 11 11 11
15 17 18 20 21 22 23 21 22 21 21 21 21 23 25 27 32 31 34 30 31 31 28 29 30 30 31 29 27 25 24 21 21 21 23 25 25 25 24 25 22 18 15 13 12 11 11 12 12
10 10 11 13 15 18 20 22 25 25 25 25 25 24 25 26 26 29 26 27 29 31 31 30 30 32 31 32 31 29 26 25 24 24 24 26 27 27 25 25 26 21 18 14 11 11 12 14 13
9 9 9 9 9 12 15 17 19 21 23 27 29 30 27 29 30 31 28 28 28 28 29 30 32 33 33 33 33 32 30 28 27 26 27 27 29 29 28 26 28 26 22 19 14 11 11 14 14
10 13 10 9 9 9 11 11 13 16 18 20 23 29 31 33 34 34 32 31 31 31 31 31 31 33 33 34 34 35 34 32 30 28 28 29 30 31 30 28 27 29 26 23 19 16 13 13 15
12 14 13 13 14 13 16 13 13 13 15 17 20 23 26 30 35 37 37 36 34 35 36 35 34 33 30 31 34 35 36 38 34 31 29 29 30 31 31 30 29 29 29 26 23 20 17 15 15
13 14 15 16 17 18 20 20 20 20 18 20 18 19 22 25 29 34 38 39 39 37 38 39 38 36 33 34 34 35 36 37 38 37 34 31 30 30 30 31 30 30 30 28 26 24 21 19 17
21 21 21 23 22 21 21 22 22 25 25 27 26 23 25 24 28 31 35 40 40 40 40 41 42 41 39 37 37 37 37 38 39 39 40 36 32 30 31 31 32 31 31 30 29 27 25 23 20
27 26 27 30 31 27 25 26 26 24 24 25 25 29 32 31 28 30 34 37 40 42 42 43 43 44 43 41 40 40 40 41 40 41 41 40 37 34 33 31 32 33 32 31 31 29 28 27 24
31 31 32 34 35 34 34 34 34 29 29 31 30 32 34 35 37 37 34 37 40 42 44 45 46 46 46 46 44 42 42 43 42 41 42 42 41 40 37 33 32 32 32 33 32 31 30 29 28
37 34 37 35 37 37 35 34 35 37 38 39 39 38 37 40 43 44 43 40 42 44 46 47 47 47 48 48 46 45 44 44 43 43 42 42 42 42 42 38 35 34 33 33 33 33 33 32 31
43 41 43 40 42 40 41 41 39 41 41 42 41 41 47 47 49 51 51 49 46 47 47 47 48 49 49 49 48 47 45 44 45 43 42 42 42 42 42 41 40 37 34 33 33 35 34 34 34
47 47 48 46 47 48 45 43 44 46 44 43 44 48 51 53 55 58 58 57 54 51 50 50 49 49 51 51 50 49 48 46 45 45 44 43 41 41 42 42 42 41 39 36 35 35 35 36 37
50 51 52 54 54 53 54 49 51 48 48 49 50 52 57 59 61 64 65 63 58 54 51 53 53 52 51 52 52 51 49 47 46 45 44 43 42 42 42 41 41 42 41 41 38 37 36 37 38
51 55 56 56 56 58 59 61 58 55 54 55 57 59 60 63 66 68 69 67 60 58 55 54 55 55 54 52 52 51 49 48 46 46 44 43 43 43 42 42 41 40 40 42 42 41 39 38 39
55 58 59 61 62 63 61 65 61 62 62 60 62 63 65 68 70 72 71 67 62 61 59 57 57 56 56 55 54 54 51 49 47 47 45 44 43 44 43 42 42 42 41 41 40 43 43 42 41
58 60 61 63 67 68 69 68 66 67 66 65 66 69 71 73 76 74 71 66 65 62 62 59 58 57 57 56 56 56 55 52 50 49 47 46 45 46 44 45 43 41 44 43 42 42 44 47 45
60 62 63 66 69 72 74 72 69 71 72 71 71 73 76 77 77 76 67 65 63 61 62 60 59 58 58 57 57 57 56 55 53 51 50 48 47 47 46 46 45 44 43 42 44 44 46 46 50
66 68 70 68 68 73 75 75 75 75 76 75 75 77 76 73 73 67 67 62 59 57 60 61 59 58 58 58 57 56 56 55 55 53 52 51 50 49 49 48 47 47 46 46 43 45 46 49 49
70 71 72 71 71 73 74 77 76 74 76 78 74 69 66 59 55 53 56 53 53 57 59 59 59 59 57 57 56 56 57 58 57 56 55 54 53 52 51 50 49 49 49 49 48 47 48 49 50
74 74 74 75 75 75 75 78 75 73 72 70 61 54 49 50 50 52 53 56 58 58 57 56 55 57 56 55 55 55 57 56 57 56 56 55 54 53 53 53 52 53 52 51 50 49 49 50 50
82 73 75 76 74 77 68 78 64 55 54 54 46 40 42 46 47 51 53 52 55 57 55 55 54 54 54 54 53 54 56 57 57 57 57 57 57 57 56 56 55 55 53 53 52 51 53 53 54
77 74 72 73 73 67 64 58 53 41 35 44 36 37 40 40 39 41 48 49 56 55 53 53 52 52 53 54 53 54 54 56 57 58 59 59 58 57 57 56 56 55 54 52 53 53 51 53 55
73 69 66 64 60 53 43 40 36 28 29 40 28 32 35 38 33 34 39 48 51 56 52 51 51 55 54 51 51 52 53 55 57 58 58 58 58 58 57 56 56 54 53 52 52 51 51 52 53
60 41 43 41 40 49 33 32 35 32 31 37 38 33 33 37 40 38 38 39 42 46 55 56 57 56 59 57 55 52 51 53 55 57 58 57 57 57 57 56 56 55 53 53 53 53 52 53 54
61 47 41 38 27 23 27 29 39 36 28 33 37 33 33 34 40 43 41 42 36 39 42 44 45 48 47 49 50 52 52 52 54 56 56 56 56 56 56 55 55 54 53 53 53 53 53 54 56
51 43 37 41 38 34 28 34 31 35 41 37 24 35 36 35 38 43 45 39 40 41 40 47 48 50 50 49 49 49 50 50 52 54 56 56 55 54 54 54 54 53 52 53 53 54 55 56 57
35 26 31 26 25 22 22 33 23 35 44 37 27 26 40 32 39 41 47 48 46 45 45 47 54 52 54 52 50 50 49 49 49 49 52 54 54 54 53 52 53 53 53 54 54 55 56 58 59
20 17 29 24 31 20 16 32 40 45 44 35 34 32 30 34 43 39 38 43 48 49 49 50 46 52 54 51 51 51 50 48 45 46 49 51 52 52 51 51 52 52 52 53 55 56 58 59 60
8 13 17 20 20 30 28 21 20 27 31 34 36 34 32 31 39 37 39 43 43 51 55 52 46 50 49 51 53 53 51 48 42 43 46 47 49 50 51 50 49 50 52 54 55 56 58 59 61
Wind_Direction
285 283 281 281 279 277 277 275 272 265 263 259 254 251 251 251 251 246 252 243 244 241 236 235 235 236 238 234 235 235 229 218 210 202 197 193 191 191 192 191 189 184 185 184 191 198 197 193 191
291 290 287 284 283 283 282 279 277 274 269 267 263 259 254 252 252 253 251 244 240 241 236 234 233 233 236 235 231 233 234 226 218 211 203 200 198 197 198 196 194 186 184 187 187 186 189 189 190
311 302 297 296 290 287 283 283 279 276 272 270 268 262 259 257 254 252 249 241 238 238 237 233 232 233 232 233 232 229 230 230 222 218 213 208 204 204 203 202 199 195 192 192 187 186 184 189 192
9 357 339 318 313 302 297 292 287 283 277 271 268 266 263 262 259 257 250 245 241 237 236 234 232 232 231 231 234 231 230 230 228 220 220 216 212 209 207 207 204 202 201 202 198 191 189 192 196
355 350 354 354 346 344 337 314 302 296 288 280 274 269 266 263 261 261 258 253 246 242 240 239 235 233 233 232 232 233 229 229 232 227 222 221 218 216 212 211 209 208 208 207 207 202 194 198 199
315 314 317 317 319 324 326 331 340 329 313 300 288 279 273 270 264 261 260 258 253 246 243 241 239 237 230 231 233 235 234 230 230 231 228 224 222 220 218 217 213 212 213 211 211 210 204 200 204
297 298 294 293 299 301 306 310 312 313 316 320 321 306 287 277 271 266 262 259 257 251 246 244 241 239 235 231 232 234 236 235 232 231 230 229 226 225 222 220 220 216 216 216 214 214 212 206 205
300 296 300 298 293 295 295 296 297 299 301 303 303 310 309 304 281 272 267 262 259 255 250 245 244 243 239 234 231 234 236 236 235 233 231 229 227 227 227 224 222 222 222 218 218 217 217 214 210
297 298 297 295 293 296 293 291 290 288 290 294 296 296 297 302 302 297 275 269 264 259 254 248 245 242 240 238 235 233 234 237 236 234 233 230 228 228 229 228 226 224 225 225 223 221 220 220 215
290 291 290 288 288 288 289 291 291 288 288 288 289 286 291 291 295 300 294 273 264 258 255 250 246 243 240 238 237 235 233 234 237 236 234 232 228 228 228 227 228 228 225 228 227 225 224 223 223
289 290 286 283 281 280 282 283 281 285 288 290 287 289 287 289 288 292 293 283 269 260 256 252 249 244 241 240 239 238 236 233 234 234 233 232 231 230 230 229 228 228 228 229 229 229 227 227 226
292 289 289 288 283 282 285 282 284 281 281 283 290 284 283 286 285 286 287 284 275 267 257 253 249 245 242 240 239 238 237 234 233 234 234 233 232 230 231 231 231 230 229 230 231 232 230 230 230
288 288 287 286 286 285 283 284 284 280 286 285 281 283 285 285 283 281 282 281 273 268 263 253 247 244 242 239 237 237 236 234 233 232 233 234 233 233 232 232 232 232 231 230 232 234 234 234 233
285 286 286 287 290 289 288 285 280 285 278 274 280 281 279 276 276 276 277 275 267 261 258 256 248 244 240 239 238 235 234 233 232 232 231 233 233 233 233 233 232 233 233 232 232 234 236 236 237
283 283 283 285 285 288 288 286 288 284 279 279 280 278 274 273 272 271 268 265 258 254 252 252 250 244 238 237 237 236 233 234 233 233 232 231 233 233 234 233 234 234 234 235 233 235 236 236 238
280 281 282 282 281 283 285 287 282 281 284 283 277 276 273 268 264 262 262 259 254 249 246 245 244 243 240 235 234 235 235 233 233 234 233 231 231 233 234 234 234 235 236 237 235 236 237 237 238
283 282 283 283 282 286 286 284 286 285 283 281 277 273 268 264 263 261 260 256 252 248 245 242 240 239 238 236 233 233 234 234 233 232 233 232 229 231 231 233 233 236 236 238 240 240 239 239 238
286 284 283 283 284 286 284 284 285 284 283 281 274 270 267 265 264 261 263 256 252 246 244 239 238 236 236 235 234 233 233 233 234 234 233 233 231 230 231 233 234 235 236 238 240 240 242 241 241
288 286 285 285 284 281 283 285 285 284 278 273 270 269 269 270 268 266 261 257 251 243 240 238 235 234 233 234 233 233 233 231 232 232 233 233 233 232 232 232 234 237 240 243 240 242 243 244 244
289 287 288 288 286 282 281 280 281 276 272 270 271 272 270 267 264 255 252 241 237 234 234 233 232 231 231 231 232 232 232 231 230 230 232 233 233 233 233 233 234 236 240 244 245 245 246 246 246
292 289 290 288 285 281 278 275 273 273 274 273 274 270 263 255 248 242 236 236 235 232 230 228 230 230 231 231 231 231 232 232 231 230 231 233 233 234 235 236 237 239 240 241 242 244 247 248 249
294 292 288 286 282 278 272 273 273 278 281 277 271 258 250 248 245 239 237 237 233 230 227 226 228 231 230 230 230 230 230 231 231 231 231 233 233 233 235 237 239 240 238 239 243 245 246 248 250
292 287 285 280 278 278 277 279 283 278 266 272 264 250 246 243 244 240 237 235 233 229 226 225 225 229 232 232 230 231 231 232 232 232 232 233 235 237 238 240 241 241 241 242 245 247 248 249 251
291 288 282 281 279 276 284 280 284 270 246 261 264 253 247 237 233 231 232 233 237 227 224 220 223 227 228 229 229 231 232 233 233 233 233 234 236 237 239 239 239 240 241 242 244 246 247 249 250
290 292 284 271 254 279 271 264 257 246 246 245 255 254 244 238 230 227 221 225 237 229 220 215 220 226 229 228 232 232 232 234 236 236 236 235 236 237 238 239 239 241 242 243 245 246 248 251 252
291 284 275 279 264 250 235 253 249 252 255 247 256 254 245 237 232 232 227 218 217 231 223 222 222 225 228 229 230 230 231 234 235 236 236 236 236 237 237 238 239 241 242 245 246 248 251 252 253
293 280 264 257 253 249 235 251 281 245 254 258 248 248 239 237 233 229 228 226 220 214 226 222 223 226 228 229 229 230 231 233 235 237 237 237 236 237 238 238 239 241 243 245 247 250 252 254 255
287 269 264 253 268 262 249 248 241 253 255 261 242 254 219 224 232 232 229 231 226 213 217 223 220 224 224 227 231 233 233 235 237 238 239 238 237 237 238 239 241 242 244 246 248 251 255 257 258
315 279 241 254 224 234 215 237 244 247 246 235 235 233 237 239 232 228 230 233 232 232 229 218 223 224 217 225 233 236 237 237 238 239 239 239 239 239 240 241 243 245 247 250 253 254 256 258 260
278 256 251 241 213 222 217 259 227 216 226 221 222 223 230 242 221 222 219 228 234 231 232 236 225 228 225 230 232 234 237 237 235 238 237 237 238 238 240 241 243 245 248 249 252 254 256 259 262